Temp
-12 -13 -13 -13 -13 -12 -13 -13 -13 -14 -14 -14 -14 -14 -14 -15 -16 -15 -17 -17 -16 -17 -17 -17 -17 -18 -18 -18 -19 -20 -21 -20 -20 -19 -20 -19 -20 -20 -20 -20 -20 -20 -20 -20
-13 -13 -13 -13 -13 -13 -13 -14 -14 -14 -14 -14 -14 -14 -15 -15 -16 -17 -17 -17 -17 -17 -17 -17 -18 -18 -18 -19 -20 -20 -20 -20 -20 -20 -20 -20 -20 -20 -20 -20 -20 -20 -20 -20
-13 -13 -13 -13 -14 -14 -14 -14 -14 -14 -14 -15 -15 -15 -16 -16 -15 -16 -17 -17 -17 -18 -17 -18 -18 -18 -19 -20 -20 -20 -20 -20 -20 -20 -20 -20 -20 -20 -20 -21 -21 -21 -21 -21
-13 -13 -14 -14 -14 -14 -14 -14 -15 -15 -15 -15 -15 -15 -16 -18 -17 -17 -17 -17 -18 -18 -18 -18 -18 -20 -20 -20 -20 -20 -20 -20 -20 -21 -20 -20 -21 -21 -21 -21 -22 -22 -22 -21
-14 -14 -14 -14 -15 -15 -14 -15 -15 -15 -16 -15 -16 -17 -16 -17 -17 -17 -17 -18 -18 -18 -18 -19 -19 -21 -20 -20 -20 -20 -21 -21 -21 -21 -21 -21 -21 -22 -22 -22 -22 -21 -21 -21
-14 -14 -14 -14 -15 -15 -15 -16 -16 -16 -16 -17 -17 -17 -17 -17 -17 -17 -18 -18 -18 -18 -19 -19 -20 -21 -21 -20 -20 -21 -21 -21 -21 -21 -22 -22 -22 -22 -22 -22 -21 -21 -21 -21
-15 -14 -14 -15 -15 -16 -16 -16 -16 -17 -18 -18 -17 -18 -17 -17 -17 -17 -17 -18 -18 -18 -19 -19 -20 -21 -20 -20 -20 -21 -21 -21 -21 -22 -22 -22 -22 -22 -21 -21 -21 -21 -21 -21
-15 -16 -16 -16 -16 -17 -17 -17 -17 -17 -18 -18 -17 -17 -17 -17 -17 -17 -18 -18 -18 -19 -19 -19 -20 -20 -20 -20 -21 -21 -21 -22 -22 -22 -22 -22 -22 -21 -22 -21 -21 -21 -20 -20
-15 -16 -16 -17 -17 -17 -18 -17 -18 -18 -18 -18 -18 -17 -17 -17 -17 -18 -18 -18 -18 -19 -19 -19 -19 -20 -20 -21 -21 -21 -22 -22 -22 -22 -22 -21 -21 -21 -21 -21 -20 -20 -20 -21
-15 -16 -17 -17 -18 -18 -18 -18 -19 -19 -18 -18 -18 -17 -17 -17 -18 -18 -18 -18 -19 -19 -19 -19 -19 -20 -20 -21 -21 -22 -22 -22 -22 -21 -21 -21 -21 -21 -20 -20 -20 -20 -20 -21
-16 -16 -18 -18 -18 -18 -18 -18 -19 -19 -19 -18 -18 -17 -17 -17 -18 -18 -18 -19 -19 -19 -19 -19 -20 -20 -21 -21 -21 -22 -22 -21 -21 -21 -21 -21 -20 -20 -20 -20 -19 -20 -20 -20
-16 -17 -18 -18 -18 -19 -19 -19 -19 -19 -19 -18 -18 -17 -18 -18 -18 -18 -18 -18 -19 -19 -19 -19 -20 -20 -21 -21 -21 -21 -21 -21 -20 -20 -20 -20 -20 -20 -20 -20 -20 -20 -20 -20
-17 -18 -19 -19 -19 -19 -20 -20 -19 -19 -18 -18 -18 -17 -18 -18 -18 -18 -18 -18 -19 -19 -19 -19 -20 -21 -21 -21 -21 -21 -20 -20 -20 -20 -20 -19 -20 -20 -20 -19 -20 -20 -20 -19
-18 -19 -19 -19 -19 -20 -20 -19 -19 -19 -18 -18 -18 -18 -18 -18 -18 -18 -18 -18 -18 -18 -19 -19 -20 -21 -21 -21 -20 -20 -20 -20 -19 -19 -19 -20 -20 -20 -20 -20 -19 -20 -19 -19
-19 -19 -19 -19 -19 -20 -20 -19 -19 -18 -18 -18 -18 -17 -18 -18 -18 -18 -18 -18 -18 -19 -19 -19 -20 -20 -20 -20 -20 -19 -19 -19 -19 -19 -19 -19 -19 -19 -19 -20 -18 -19 -19 -19
-19 -19 -19 -19 -19 -19 -19 -18 -18 -18 -18 -18 -17 -17 -18 -18 -18 -18 -18 -18 -18 -19 -19 -20 -20 -21 -20 -19 -19 -19 -19 -19 -19 -19 -19 -19 -19 -19 -19 -19 -19 -18 -18 -19
-19 -19 -19 -19 -19 -19 -18 -18 -18 -18 -18 -18 -18 -17 -18 -18 -18 -18 -18 -18 -18 -19 -19 -20 -20 -20 -20 -19 -19 -19 -18 -18 -18 -18 -18 -19 -18 -18 -18 -18 -19 -19 -19 -18
-19 -19 -19 -19 -19 -19 -19 -18 -18 -17 -17 -18 -18 -18 -18 -18 -18 -17 -17 -18 -18 -18 -19 -20 -20 -20 -20 -20 -19 -18 -18 -18 -18 -18 -18 -18 -18 -18 -18 -19 -19 -18 -18 -18
-19 -19 -19 -19 -19 -19 -19 -18 -18 -17 -18 -18 -17 -18 -18 -18 -17 -18 -17 -17 -18 -18 -19 -20 -20 -20 -20 -20 -19 -18 -18 -19 -19 -19 -18 -18 -18 -19 -18 -18 -18 -18 -18 -18
-19 -19 -19 -19 -19 -19 -19 -18 -18 -18 -18 -18 -17 -17 -18 -18 -17 -17 -17 -17 -17 -18 -19 -20 -20 -20 -20 -20 -20 -19 -19 -19 -19 -18 -18 -18 -19 -18 -18 -17 -18 -18 -18 -18
-19 -19 -19 -20 -19 -19 -19 -18 -18 -18 -18 -18 -18 -17 -18 -18 -18 -17 -17 -17 -17 -18 -19 -19 -20 -20 -20 -20 -20 -20 -20 -19 -19 -18 -18 -18 -18 -18 -17 -17 -18 -18 -18 -17
-20 -19 -19 -20 -19 -19 -19 -18 -18 -19 -18 -18 -18 -17 -17 -18 -18 -17 -17 -17 -17 -18 -18 -19 -19 -20 -20 -20 -20 -20 -20 -19 -19 -19 -18 -18 -18 -17 -18 -18 -19 -19 -18 -17
-20 -20 -19 -19 -19 -19 -19 -18 -18 -19 -18 -18 -17 -17 -17 -17 -17 -17 -18 -17 -17 -17 -18 -18 -19 -19 -20 -20 -20 -20 -20 -20 -20 -20 -19 -18 -18 -19 -20 -20 -19 -18 -17 -16
-20 -19 -19 -19 -19 -19 -18 -19 -19 -19 -18 -18 -18 -18 -17 -17 -17 -17 -18 -18 -17 -17 -18 -18 -18 -18 -19 -20 -20 -20 -20 -20 -20 -20 -20 -20 -20 -20 -21 -20 -20 -18 -17 -16
-20 -19 -19 -19 -19 -18 -18 -19 -19 -19 -18 -17 -18 -18 -17 -17 -17 -17 -18 -17 -17 -18 -17 -18 -18 -18 -18 -19 -19 -19 -20 -20 -20 -20 -20 -20 -20 -20 -21 -21 -21 -18 -17 -16
-20 -20 -18 -19 -19 -19 -18 -19 -18 -18 -18 -17 -18 -18 -17 -17 -17 -17 -17 -17 -17 -18 -18 -17 -18 -18 -18 -18 -19 -19 -19 -19 -20 -20 -20 -20 -20 -20 -20 -21 -21 -20 -18 -17
Height
5782 5780 5777 5774 5772 5769 5766 5763 5760 5758 5755 5751 5747 5739 5734 5727 5723 5721 5718 5716 5715 5712 5711 5709 5706 5701 5696 5690 5685 5679 5674 5669 5664 5660 5655 5650 5644 5639 5632 5627 5622 5616 5610 5605
5778 5775 5772 5769 5767 5764 5761 5758 5756 5754 5748 5744 5738 5732 5725 5721 5719 5714 5712 5710 5708 5707 5705 5702 5699 5693 5690 5684 5680 5675 5669 5663 5657 5652 5647 5641 5636 5629 5623 5617 5610 5604 5598 5592
5773 5772 5768 5766 5763 5761 5757 5753 5750 5745 5740 5735 5727 5720 5715 5709 5711 5710 5706 5703 5701 5699 5697 5695 5691 5686 5684 5680 5675 5670 5664 5657 5651 5645 5639 5633 5626 5619 5612 5604 5597 5590 5583 5577
5771 5768 5765 5762 5757 5755 5752 5747 5743 5737 5732 5726 5719 5715 5711 5703 5707 5703 5700 5699 5697 5695 5693 5690 5686 5683 5680 5674 5670 5665 5659 5652 5646 5640 5633 5626 5619 5611 5604 5596 5588 5580 5572 5566
5767 5763 5761 5757 5753 5747 5743 5740 5735 5729 5722 5717 5711 5709 5707 5705 5701 5699 5697 5696 5694 5692 5690 5686 5682 5680 5676 5670 5665 5661 5655 5648 5641 5633 5626 5618 5610 5602 5594 5586 5577 5569 5561 5554
5761 5757 5754 5752 5747 5741 5733 5731 5727 5721 5714 5710 5708 5706 5703 5701 5701 5698 5696 5692 5688 5688 5686 5684 5680 5677 5672 5667 5662 5657 5651 5643 5634 5627 5619 5610 5602 5594 5585 5576 5567 5561 5554 5546
5755 5750 5745 5742 5738 5736 5728 5724 5719 5714 5710 5708 5706 5703 5697 5698 5697 5696 5694 5690 5688 5687 5686 5683 5679 5675 5670 5665 5659 5653 5644 5636 5628 5620 5612 5603 5595 5585 5577 5569 5560 5557 5551 5542
5752 5746 5740 5734 5729 5727 5722 5717 5713 5708 5707 5706 5704 5702 5699 5697 5697 5693 5689 5686 5686 5685 5684 5682 5677 5672 5667 5661 5655 5646 5637 5629 5622 5614 5605 5597 5588 5581 5571 5563 5560 5554 5545 5536
5745 5741 5732 5728 5724 5719 5717 5712 5708 5706 5704 5704 5703 5700 5699 5698 5695 5691 5689 5687 5687 5686 5685 5681 5675 5669 5662 5656 5649 5640 5633 5626 5618 5609 5600 5593 5586 5580 5568 5562 5557 5549 5539 5530
5739 5735 5729 5722 5718 5711 5709 5705 5703 5704 5703 5702 5701 5700 5699 5698 5696 5694 5692 5689 5688 5686 5682 5677 5672 5665 5660 5652 5645 5638 5631 5623 5614 5606 5598 5591 5586 5578 5572 5560 5554 5545 5537 5525
5730 5727 5723 5714 5712 5708 5704 5701 5701 5701 5701 5701 5702 5701 5699 5698 5697 5696 5693 5690 5688 5685 5681 5676 5670 5664 5657 5650 5643 5636 5628 5619 5613 5605 5599 5593 5585 5578 5570 5564 5553 5543 5534 5521
5725 5720 5714 5709 5704 5701 5700 5699 5700 5700 5701 5701 5701 5701 5699 5698 5697 5696 5694 5692 5690 5686 5681 5676 5670 5663 5656 5650 5643 5634 5626 5619 5613 5608 5601 5593 5587 5580 5571 5564 5554 5544 5533 5520
5718 5712 5708 5702 5698 5695 5695 5696 5698 5699 5699 5700 5701 5701 5699 5699 5698 5697 5696 5694 5691 5686 5681 5675 5669 5662 5656 5649 5641 5633 5627 5621 5616 5610 5602 5595 5589 5583 5575 5565 5555 5544 5534 5520
5714 5707 5701 5697 5693 5692 5692 5693 5696 5699 5699 5700 5700 5700 5700 5701 5701 5700 5698 5696 5692 5687 5682 5676 5670 5664 5656 5648 5641 5636 5630 5625 5618 5612 5605 5598 5592 5586 5578 5567 5557 5546 5536 5522
5709 5703 5697 5694 5692 5692 5693 5696 5698 5699 5699 5700 5700 5699 5701 5702 5702 5702 5700 5698 5693 5689 5684 5677 5670 5663 5655 5650 5644 5639 5633 5626 5620 5615 5608 5600 5595 5589 5579 5570 5560 5550 5538 5524
5704 5698 5695 5694 5694 5695 5695 5697 5697 5699 5700 5700 5700 5697 5702 5703 5704 5704 5703 5700 5697 5692 5686 5678 5672 5665 5658 5653 5648 5642 5636 5630 5623 5618 5612 5605 5600 5593 5585 5575 5565 5553 5541 5528
5702 5697 5696 5695 5695 5697 5698 5697 5698 5699 5700 5702 5701 5702 5703 5705 5707 5707 5706 5703 5700 5695 5688 5680 5674 5667 5661 5655 5650 5645 5639 5633 5627 5622 5617 5611 5605 5597 5588 5578 5568 5558 5546 5534
5698 5696 5696 5696 5697 5699 5698 5697 5700 5700 5700 5701 5702 5704 5706 5708 5709 5710 5709 5707 5703 5697 5690 5683 5677 5671 5665 5659 5653 5648 5643 5637 5632 5627 5621 5615 5609 5602 5593 5582 5573 5562 5550 5540
5694 5694 5695 5696 5695 5698 5697 5699 5701 5702 5702 5702 5706 5706 5710 5711 5712 5713 5712 5710 5706 5701 5694 5687 5681 5676 5671 5664 5657 5652 5647 5641 5637 5633 5627 5621 5614 5609 5600 5590 5578 5569 5557 5547
5692 5691 5694 5694 5696 5698 5698 5700 5703 5703 5703 5704 5707 5707 5710 5714 5715 5716 5715 5713 5710 5705 5699 5693 5686 5682 5677 5671 5663 5656 5652 5647 5644 5639 5634 5628 5621 5615 5606 5596 5585 5575 5563 5553
5689 5689 5691 5692 5697 5698 5699 5703 5703 5705 5709 5707 5710 5712 5711 5716 5719 5719 5718 5717 5715 5710 5705 5699 5693 5688 5683 5678 5671 5664 5659 5655 5649 5644 5640 5636 5630 5621 5611 5601 5591 5580 5571 5562
5683 5686 5689 5695 5696 5698 5700 5703 5705 5707 5707 5709 5712 5714 5713 5718 5721 5722 5722 5721 5720 5716 5712 5706 5701 5695 5690 5684 5679 5673 5669 5660 5655 5652 5649 5644 5636 5627 5618 5610 5601 5592 5583 5574
5679 5681 5687 5694 5695 5697 5700 5704 5704 5705 5709 5712 5715 5716 5716 5721 5724 5725 5725 5725 5724 5723 5719 5714 5709 5703 5699 5693 5687 5683 5679 5670 5665 5661 5656 5649 5643 5636 5629 5623 5615 5604 5595 5588
5671 5677 5684 5692 5694 5697 5700 5703 5705 5708 5712 5714 5717 5721 5719 5724 5727 5729 5729 5729 5729 5728 5725 5722 5718 5713 5708 5703 5697 5693 5688 5682 5676 5671 5665 5659 5655 5650 5645 5637 5628 5617 5608 5600
5666 5673 5683 5690 5693 5696 5699 5703 5706 5710 5713 5715 5719 5723 5724 5727 5730 5732 5733 5733 5734 5733 5731 5729 5726 5722 5718 5713 5708 5704 5699 5693 5688 5683 5678 5673 5670 5666 5661 5651 5643 5631 5622 5615
5666 5675 5684 5691 5694 5697 5700 5703 5707 5712 5714 5717 5722 5726 5727 5729 5733 5735 5737 5738 5738 5738 5736 5735 5732 5730 5727 5724 5720 5716 5711 5706 5701 5697 5693 5689 5685 5681 5675 5667 5656 5645 5637 5631
Wind_Speed
16 16 17 19 21 23 24 26 27 24 27 30 31 38 39 39 44 45 47 50 47 42 40 41 34 27 34 39 35 23 21 25 30 33 35 38 40 41 42 41 42 42 43 43
16 17 19 20 21 23 25 27 28 31 34 36 38 42 41 41 39 39 34 29 30 34 36 37 33 30 39 36 28 25 27 30 34 37 40 42 42 42 42 41 42 43 45 47
17 18 20 22 22 22 26 31 34 37 39 38 40 40 38 35 32 19 21 18 23 26 30 34 31 26 23 19 24 28 30 34 38 40 42 43 43 43 42 43 44 45 46 47
19 19 19 21 25 28 30 33 35 37 38 37 35 31 26 21 15 20 16 19 22 31 31 38 24 15 18 23 27 30 33 37 40 41 41 41 41 41 41 43 43 44 46 48
19 19 20 22 26 32 36 36 35 35 35 32 26 18 16 13 18 19 17 17 19 20 22 14 7 14 20 25 29 32 35 37 39 40 40 39 40 40 40 41 44 45 37 32
22 24 25 25 27 31 38 36 33 31 28 19 16 19 18 17 14 17 18 21 25 22 15 10 11 16 21 27 30 33 36 36 38 38 39 37 36 37 40 40 31 29 29 34
25 28 30 30 32 29 36 35 32 24 10 12 15 19 15 12 10 16 18 15 20 15 6 11 14 17 23 28 31 34 35 37 37 36 35 36 38 38 29 28 25 30 34 38
21 25 28 32 36 33 30 31 26 15 10 10 9 14 10 6 8 10 6 6 12 9 10 12 14 19 25 29 33 34 36 36 34 35 36 37 30 26 28 30 32 32 28 28
25 25 33 33 35 33 27 30 19 11 10 4 6 3 11 16 7 11 10 12 10 10 11 14 19 24 27 32 32 34 33 34 34 36 32 25 25 26 27 31 26 25 30 33
30 30 29 32 28 33 31 25 10 5 3 5 8 3 11 11 8 7 10 12 13 13 17 20 23 25 30 31 31 29 32 33 33 27 26 25 26 27 24 26 28 28 29 36
35 35 31 34 30 24 24 6 6 5 2 4 7 8 3 6 6 7 10 14 15 16 19 22 24 28 29 28 28 30 31 28 26 26 25 30 28 24 23 26 22 28 30 19
35 35 32 33 32 20 10 2 3 3 4 6 6 10 7 6 7 9 12 13 14 17 20 22 26 27 25 25 27 29 24 26 25 24 31 27 23 23 29 26 26 27 25 26
36 34 31 33 22 12 7 13 4 2 5 6 6 9 5 3 6 10 12 13 15 18 20 24 27 25 24 28 28 24 25 24 26 29 29 26 23 29 25 22 20 24 33 35
31 34 33 22 13 7 3 5 7 4 9 4 3 4 3 3 7 10 11 14 18 19 22 27 26 23 28 28 25 26 27 25 29 30 28 25 31 26 32 25 27 35 33 34
33 32 24 14 7 4 6 4 3 3 3 2 1 4 7 5 9 10 12 17 18 19 24 26 23 28 30 27 28 27 27 28 30 29 27 31 27 34 32 34 34 33 33 36
33 26 15 6 12 13 13 4 3 4 4 3 3 10 11 9 9 10 15 17 18 23 25 25 24 28 29 25 25 27 30 33 33 31 30 29 30 30 29 31 32 35 38 40
26 13 5 15 16 13 9 13 6 9 9 5 11 16 10 11 10 13 17 17 21 24 27 24 25 30 31 27 25 27 31 32 32 32 31 30 32 35 31 33 31 30 37 39
17 2 6 13 16 12 12 7 9 5 13 12 15 12 13 13 13 15 17 19 24 28 29 26 25 30 31 30 27 26 29 30 32 34 33 35 36 37 32 40 40 38 42 45
17 2 8 15 13 10 10 5 6 4 14 13 16 15 14 13 16 16 17 23 27 29 30 30 24 28 31 30 29 28 27 28 31 32 31 30 32 35 41 38 41 40 42 39
14 5 7 16 12 10 12 4 3 5 10 20 11 16 17 13 17 17 18 23 29 30 31 34 29 25 28 30 31 30 28 27 26 28 30 30 30 35 38 37 38 43 43 31
10 7 9 14 7 9 24 15 6 3 10 21 14 16 21 16 15 17 19 23 29 30 30 34 36 32 27 28 32 33 30 23 27 29 32 32 35 40 39 40 44 47 42 28
6 12 14 11 11 14 21 14 7 6 13 17 17 17 22 17 16 18 18 22 27 31 33 34 34 38 35 29 31 35 33 32 36 37 37 42 45 46 45 43 47 44 32 34
11 18 18 19 11 14 15 9 7 19 19 16 18 18 23 19 18 18 17 21 24 27 32 36 37 36 40 37 33 35 37 43 46 49 51 52 52 49 51 47 38 32 32 36
17 23 24 21 13 16 14 11 18 15 13 17 18 18 23 20 20 18 16 19 22 26 29 34 37 41 38 41 42 39 38 40 44 46 50 52 51 52 52 48 55 44 35 35
26 28 29 21 16 18 17 14 21 21 15 20 20 20 22 22 21 19 17 19 20 22 26 29 33 36 41 41 42 43 45 46 48 49 49 49 48 51 52 61 63 53 38 41
29 29 33 23 20 17 16 16 22 16 18 22 21 20 21 23 21 19 19 19 19 19 22 25 28 31 35 38 43 44 44 44 45 45 45 46 48 53 56 59 66 74 67 55
Wind_Direction
316 308 304 307 307 310 312 314 316 311 306 303 301 298 297 284 281 283 280 282 292 292 300 303 299 304 315 312 309 307 295 301 306 309 306 307 307 307 307 308 307 304 300 297
319 319 320 317 322 318 313 311 304 301 305 306 304 300 293 289 284 283 292 296 289 293 305 311 294 313 317 315 307 317 321 318 314 314 314 313 312 312 312 310 305 301 299 296
324 322 318 319 315 305 301 301 303 306 308 312 304 302 297 295 303 324 306 315 311 308 314 295 320 319 321 324 317 320 323 320 317 316 316 316 316 316 312 308 306 305 304 301
318 317 316 312 304 305 303 302 308 312 312 308 299 293 299 300 308 319 317 317 308 312 308 281 315 337 322 317 321 325 323 319 317 318 316 318 314 309 307 307 307 303 301 302
315 311 308 302 303 303 303 308 316 319 313 306 297 303 315 307 299 301 316 301 303 310 308 325 312 328 321 323 325 323 318 318 321 319 317 313 312 311 311 310 309 310 313 319
312 308 304 307 305 307 311 324 325 318 309 300 302 309 299 289 295 287 304 298 295 297 311 314 342 333 326 321 323 319 321 325 320 317 316 318 318 317 316 316 318 323 323 319
314 312 313 313 311 324 319 323 326 317 295 300 315 317 282 285 306 298 297 291 296 318 328 339 343 332 321 322 320 324 328 322 320 324 325 323 323 320 328 327 325 329 329 325
314 309 312 314 320 327 323 329 328 320 318 322 305 1 31 33 321 312 39 52 51 25 359 344 335 329 327 323 330 330 326 328 329 329 328 328 331 342 334 331 342 340 339 328
320 324 320 322 324 325 327 318 317 311 318 329 336 57 17 8 62 70 48 52 47 24 360 348 343 338 327 334 334 331 332 332 333 332 339 350 348 348 342 342 346 338 333 327
323 327 327 322 324 320 325 319 303 285 345 348 330 311 353 21 66 58 48 45 31 16 3 354 347 336 339 337 335 336 335 338 339 359 356 356 3 352 0 343 342 337 339 346
327 329 329 324 322 315 312 297 330 316 29 29 338 338 302 49 66 32 45 39 25 13 359 354 344 344 341 340 342 341 343 352 5 5 11 2 359 358 358 8 352 343 347 353
328 332 326 321 320 309 271 262 337 53 55 45 31 30 49 121 36 30 42 36 25 9 1 353 348 349 350 347 347 352 6 11 16 17 3 8 19 20 7 8 3 360 6 346
333 329 325 324 321 307 258 233 178 81 89 22 42 35 69 91 32 45 40 37 22 12 4 356 358 358 353 356 3 16 22 26 16 9 13 7 6 3 14 9 355 358 358 348
332 326 327 331 326 295 280 185 172 121 53 13 30 75 107 84 55 57 50 33 27 14 5 4 4 4 4 13 23 29 25 19 12 17 15 7 2 19 6 8 1 9 7 7
330 331 333 342 6 53 110 117 147 174 143 11 71 111 140 91 64 61 51 40 26 18 12 8 16 12 17 27 30 30 27 26 29 26 16 10 21 12 21 16 12 11 12 6
334 331 344 68 105 110 105 67 115 181 155 355 339 139 129 97 83 72 55 44 33 25 17 17 26 20 27 36 39 41 38 37 34 27 22 17 16 19 15 11 13 19 16 10
331 335 40 130 132 126 88 108 125 123 134 99 124 126 100 105 93 75 64 49 42 33 25 32 32 26 30 38 37 36 35 37 37 36 30 23 21 15 5 12 17 21 22 18
335 323 164 169 150 99 143 107 100 157 128 140 147 115 118 109 98 80 68 58 46 38 33 39 39 33 31 33 37 35 36 37 39 39 38 32 33 21 19 31 30 21 15 20
336 256 190 195 160 38 185 131 100 115 130 145 141 124 117 117 99 87 74 63 52 44 39 41 44 39 35 32 33 37 38 35 36 38 37 36 40 35 38 31 26 29 21 15
320 272 211 215 198 112 149 147 109 93 128 154 145 135 115 111 98 90 81 68 58 49 45 46 47 44 40 36 38 39 37 34 36 38 42 42 44 46 41 27 25 25 24 26
290 216 190 227 203 153 168 158 199 143 150 151 151 137 118 111 105 93 86 73 66 55 51 50 49 48 46 44 44 47 46 43 43 43 41 49 51 49 45 34 27 24 30 32
247 189 174 193 166 148 175 192 185 208 176 157 150 143 124 118 115 99 92 78 73 63 58 54 52 51 51 52 49 51 53 55 60 61 58 57 53 49 44 34 26 22 34 32
189 174 168 174 183 165 174 167 182 169 164 152 142 143 130 124 116 103 98 88 81 71 64 59 56 55 54 55 54 53 54 60 62 63 61 58 56 52 47 38 47 43 43 47
181 167 161 167 187 174 164 146 151 150 155 144 144 151 134 127 118 108 103 99 90 81 71 64 62 61 60 57 58 59 60 62 64 64 63 62 60 60 52 51 59 59 50 57
167 164 160 169 174 164 160 163 168 156 164 146 147 151 139 129 121 112 107 106 97 90 80 70 65 63 65 64 62 62 64 65 66 67 67 68 68 68 59 60 61 69 63 76
158 156 160 157 156 150 153 174 168 153 155 148 150 151 142 131 126 120 117 107 100 96 89 80 73 66 65 65 67 66 65 66 67 66 68 70 71 71 64 58 59 61 68 76